Regional Weather Roundup
Issued by NWS

Home | Current Version | Previous Version | Graphics & Text | Print | Product List | Glossary Off
Versions: 1 2 3 4 5 6 7 8 9 10 11 12 13 14 15 16 17 18 19 20 21 22 23 24 25 26 27 28 29 30 31 32 33 34 35 36 37 38 39 40 41 42 43 44 45 46 47 48 49 50

000
ASUS43 KMKX 240010
RWRWI

WISCONSIN REGIONAL WEATHER ROUNDUP
NATIONAL WEATHER SERVICE MILWAUKEE/SULLIVAN WI
700 PM CDT SAT MAY 23 2015

NOTE: "FAIR" INDICATES FEW OR NO CLOUDS BELOW 12,000 FEET WITH NO
SIGNIFICANT WEATHER AND/OR OBSTRUCTIONS TO VISIBILITY.

WIZ001-002-006>008-014>016-023>028-240100-
NORTHWEST WISCONSIN

CITY           SKY/WX    TMP DP  RH WIND       PRES   REMARKS
SUPERIOR ARPT  MOSUNNY   72  43  35 SW14G22   30.13F
ASHLAND        MOSUNNY   73  41  31 SW17G26   30.14S
6HR MIN TEMP:  73; 6HR MAX TEMP:  81;

HAYWARD        PTSUNNY   68  42  38 S6        30.18F
6HR MIN TEMP:  68; 6HR MAX TEMP:  77;

SIREN          CLOUDY    67  40  36 SW5       30.19F
CUMBERLAND     CLOUDY    63  46  55 N5        30.19F
RICE LAKE      CLOUDY    65  47  51 N3        30.20F
CHETEK         CLOUDY    67  46  47 CALM      30.18F
LADYSMITH      CLOUDY    66  45  45 N7        30.20F
EAU CLAIRE     NOT AVBL
MENOMONIE      PTSUNNY   72  41  32 CALM      30.16S
6HR MIN TEMP:  69; 6HR MAX TEMP:  75;

NEW RICHMOND   MOSUNNY   66  43  42 N12       30.18S
OSCEOLA        CLOUDY    64  53  68 NE5       30.20F
$$

WIZ003>005-009-010-017-018-240100-
NORTH CENTRAL WISCONSIN

CITY           SKY/WX    TMP DP  RH WIND       PRES   REMARKS
MANITOWISH WTR MOSUNNY   71  40  31 SW12G20   30.16S
ARBOR VITAE    PTSUNNY   72  39  30 SW8G20    30.17S
WOODRUFF       PTSUNNY   72  39  30 SW8G20    30.17S
RHINELANDER    CLOUDY    71  39  31 W9        30.18F
6HR MIN TEMP:  71; 6HR MAX TEMP:  77;

EAGLE RIVER    PTSUNNY   72  31  22 SW13      30.16F
LAND O LAKES   PTSUNNY   74  28  18 SW7       30.17S
PHILLIPS       CLOUDY    68  40  36 W3        30.18F
TOMAHAWK       CLOUDY    70  36  28 W8        30.19F
MEDFORD        CLOUDY    69  40  34 W5        30.19S
MERRILL        PTSUNNY   71  43  36 W6        30.19F
$$

WIZ029-030-035-036-043>047-240100-
CENTRAL WISCONSIN

CITY           SKY/WX    TMP DP  RH WIND       PRES   REMARKS
WAUSAU         CLOUDY    72  38  29 NW9       30.16F
6HR MIN TEMP:  72; 6HR MAX TEMP:  77;

MOSINEE        NOT AVBL
MARSHFIELD     PTSUNNY   72  43  35 NW3       30.17F
6HR MIN TEMP:  72; 6HR MAX TEMP:  78;

STEVENS POINT  PTSUNNY   72  38  28 CALM      30.18F
WAUPACA        PTSUNNY   77  37  23 SW6       30.16F
WAUTOMA        NOT AVBL
WISC RAPIDS    CLOUDY    75  36  24 SW6       30.17F
6HR MIN TEMP:  75; 6HR MAX TEMP:  81;

CAMP DOUGLAS   NOT AVBL
$$

WIZ011>013-019>022-031-037>040-048>050-240100-
NORTHEAST WISCONSIN

CITY           SKY/WX    TMP DP  RH WIND       PRES   REMARKS
ANTIGO         CLOUDY    72  43  34 SW9       30.19F
SHAWANO        CLOUDY    77  38  23 S3        30.16S
OCONTO         MOSUNNY   74  42  31 S7        30.15F
STURGEON BAY   MOSUNNY   68  37  32 S16       30.20S
6HR MIN TEMP:  68; 6HR MAX TEMP:  73;

GREEN BAY      MOSUNNY   77  38  24 S9        30.16F
6HR MIN TEMP:  75; 6HR MAX TEMP:  79;

MANITOWOC      NOT AVBL
APPLETON       PTSUNNY   72  37  28 SW6       30.17F
CLINTONVILLE   PTSUNNY   79  34  19 SW9       30.16S
OSHKOSH        MOSUNNY   77  39  25 VRB3      30.16F
6HR MIN TEMP:  74; 6HR MAX TEMP:  78;

$$

WIZ032>034-041-042-053>061-240100-
SOUTHWEST WISCONSIN

CITY           SKY/WX    TMP DP  RH WIND       PRES   REMARKS
LA CROSSE      PTSUNNY   77  44  30 SE7       30.13F
6HR MIN TEMP:  73; 6HR MAX TEMP:  80;

SPARTA         CLOUDY    74  40  29 S3        30.16F
VIROQUA        PTSUNNY   75  41  29 S5        30.17F
BOSCOBEL       CLOUDY    78  43  28 SW5       30.15F
6HR MIN TEMP:  78; 6HR MAX TEMP:  82;

PRAIRIE DU CHI MOSUNNY   77  37  23 S9        30.14F
PLATTEVILLE    PTSUNNY   75  43  31 S9        30.17F
$$

WIZ056-057-062-063-064-067-068-240100-
SOUTH CENTRAL WISCONSIN

CITY           SKY/WX    TMP DP  RH WIND       PRES   REMARKS
REEDSBURG      MOSUNNY   74  44  33 SW6       30.16F
BARABOO/DELLS  MOSUNNY   74  36  25 SW7       30.17S
LONE ROCK      NOT AVBL
MINERAL POINT  CLOUDY    73  37  27 S5        30.18F
MADISON        PTSUNNY   75  40  28 SW5       30.17F
6HR MIN TEMP:  74; 6HR MAX TEMP:  78;

MIDDLETON      PTSUNNY   76  32  19 SW7       30.18F
WATERTOWN      SUNNY     75  42  29 SW6       30.17F
MONROE         CLOUDY    75  43  31 SW5       30.17F
JANESVILLE     PTSUNNY   77  39  25 S6        30.17F
$$

WIZ051-052-058>065-066-070>072-240100-
SOUTHEAST WISCONSIN

CITY           SKY/WX    TMP DP  RH WIND       PRES   REMARKS
MILWAUKEE      MOSUNNY   66  40  38 SE10      30.19F
6HR MIN TEMP:  66; 6HR MAX TEMP:  74;

WAUKESHA       MOSUNNY   72  43  35 E10       30.19F
MILWAUKEE/TIMM SUNNY     72  36  26 SE12      30.20F
RACINE         SUNNY     64  39  39 SE9       30.21F
6HR MIN TEMP:  64; 6HR MAX TEMP:  72;

BURLINGTON     SUNNY     76  34  22 SW6       30.18F
KENOSHA        SUNNY     69  42  37 SE9       30.19F
6HR MIN TEMP:  68; 6HR MAX TEMP:  76;

FOND DU LAC    MOSUNNY   77  38  24 S7        30.17F
6HR MIN TEMP:  76; 6HR MAX TEMP:  80;

SHEBOYGAN      SUNNY     67  40  37 S8        30.20F
6HR MIN TEMP:  67; 6HR MAX TEMP:  75;

WEST BEND      SUNNY     72  37  28 SE9       30.20S
JUNEAU         MOSUNNY   76  40  27 S12       30.19F
$$

LSZ147-162-240100-
LAKE SUPERIOR

STATION/POSITION TIME  TEMP    WIND        PRES    WAVE
                       AIR SEA DIR/SP/G            HT/PER
                 (UTC) (F)     (DEG/KT/KT) (MB)    (FT/S)
W MID LAKE BUOY  2250   53 37  250/ 10/ 10   N/A     1/ 4
DEVILS ISLAND    2300   72     210/  7/  8   N/A
PORT WING        2300   70     270/ 11/ 14   N/A
SAXON HARBOR     2340   77     250/  7/ 15   N/A
$$

LMZ867-665-643>646-240100-
LAKE MICHIGAN

STATION/POSITION TIME  TEMP    WIND        PRES    WAVE
                       AIR SEA DIR/SP/G            HT/PER
                 (UTC) (F)     (DEG/KT/KT) (MB)    (FT/S)
CHAMBERS ISLAND  2300   69     150/  6/ 12   N/A
N MID LAKE BUOY  2250   42 36  200/ 12/ 14   N/A     2/ 4
NORTHPORT PIER   2300   66     180/  9/ 19   N/A
SISTER BAY       2217   71     180/ 14/ 18   N/A
KEWAUNEE LAKESHO 2300   51     180/ 11/ 13   N/A
SHEBOYGAN LAKESH 2300   56     180/ 16/ 17   N/A
PORT WASHINGTON  2340   58     210/  3/  7   N/A
ATWATER BUOY     2300   51 46  160/  8/  8   N/A
MILWAUKEE LAKESH 2300   55      CALM  /  1   N/A
S MID LAKE BUOY  2250   49 38   90/  8/  8   N/A     0
KENOSHA   LAKESH 2300   57     170/  6/  7   N/A
$$

TC  - TEMPERATURE IN CELSIUS
VSB - VISIBILITY IN STATUTE MILES
WCI - WIND CHILL INDEX
HX  - HEAT INDEX



USA.gov is the U.S. government's official web portal to all federal, state and local government web resources and services.